Regional Weather Roundup
Issued by NWS

Home | Current Version | Previous Version | Graphics & Text | Print | Product List | Glossary On
Versions: 1 2 3 4 5 6 7 8 9 10 11 12 13 14 15 16 17 18 19 20 21 22 23 24 25 26 27
000
ASUS43 KDMX 151707
RWRIA

WEATHER ROUNDUP FOR IOWA
NATIONAL WEATHER SERVICE DES MOINES IA
1200 PM CDT TUE APR 15 2014

NOTE: "FAIR" INDICATES FEW OR NO CLOUDS BELOW 12,000 FEET WITH NO
SIGNIFICANT WEATHER AND/OR OBSTRUCTIONS TO VISIBILITY.

* - THESE STATIONS ARE NOT NWS STATIONS...THUS NOT UNDER NWS
QUALITY CONTROL.  THEY ALSO DO NOT REPORT WEATHER SUCH
AS PRECIPITATION OR FOG.

IAZ001>003-012>014-020>022-031>034-043>046-151800-
   NORTHWEST IOWA

CITY           SKY/WX    TMP DP  RH WIND       PRES   REMARKS
CARROLL *      SUNNY     32  19  59 SW5       30.18F WCI  27
CHEROKEE *     SUNNY     36  16  44 S5        30.15F WCI  32
DENISON *      SUNNY     34  21  60 VRB5G12   30.15F WCI  30
LE MARS *      SUNNY     36  19  51 SE12G18   30.14F WCI  27
ORANGE CITY *  SUNNY     34  12  40 S9        30.12F WCI  26
SHELDON *      SUNNY     34  12  40 VRB5      30.11F WCI  30
SIOUX CITY     SUNNY     37  22  54 S13       30.15F WCI  29
SPENCER        SUNNY     32  13  45 VRB5      30.15F WCI  27
STORM LAKE *   SUNNY     30  16  55 CALM      30.15F
$$

IAZ055>058-069>071-079>083-090>094-151800-
   SOUTHWEST IOWA

CITY           SKY/WX    TMP DP  RH WIND       PRES   REMARKS
ATLANTIC *     SUNNY     37  19  48 VRB3      30.18F
AUDUBON *      SUNNY     36  18  48 CALM      30.18F
COUNCIL BLFS * SUNNY     37  21  52 CALM      30.15F
CRESTON *      SUNNY     36  19  51 NW7       30.19S WCI  30
HARLAN  *      SUNNY     36  21  55 VRB8      30.21F WCI  29
LAMONI         SUNNY     39  18  42 VRB5      30.19S
RED OAK *      SUNNY     39  19  45 W8        30.19F WCI  34
SHENANDOAH *   SUNNY     41  16  36 VRB3G12   30.20F
$$

IAZ047>049-059>061-072>074-084-151800-
   CENTRAL IOWA

CITY           SKY/WX    TMP DP  RH WIND       PRES   REMARKS
AMES           SUNNY     33  16  49 NW8       30.20F WCI  26
ANKENY *       SUNNY     36  18  48 NW8G14    30.20F WCI  29
CHARITON *     SUNNY     37  21  52 NW9G18    30.19F WCI  31
DES MOINES     MOSUNNY   38  17  42 NW13      30.21S WCI  30
GRINNELL*      SUNNY     34  18  51 W14G23    30.20S WCI  24
KNOXVILLE *    MOSUNNY   36  18  48 NW9       30.20F WCI  29
MARSHALLTOWN   SUNNY     31  13  47 NW12      30.19S WCI  22
NEWTON *       SUNNY     32  18  55 NW10G17   30.21S WCI  24
PELLA *        MOSUNNY   36  19  51 NW9G18    30.21F WCI  29
PERRY *          N/A     32  18  55 CALM      30.20F
$$

IAZ004>006-015-016-023>025-035-036-151800-
   NORTH CENTRAL IOWA

CITY           SKY/WX    TMP DP  RH WIND       PRES   REMARKS
ALGONA *       SUNNY     30  10  43 N7        30.18F WCI  23
CLARION *      SUNNY     30  12  47 W12       30.18S WCI  21
ESTHERVILLE      N/A     30   9  41 MISG      30.15F
FORT DODGE *   SUNNY     32  14  47 NW9       30.20S WCI  24
MASON CITY     SUNNY     30   6  36 W12       30.17F WCI  20
FOREST CITY *  SUNNY     30   9  40 NW10      30.16S WCI  21
IOWA FALLS *     N/A     32  12  43 NW8       30.19S WCI  25
$$

IAZ007>011-017>019-026>030-037>042-050>054-066-151800-
   NORTHEAST IOWA

CITY           SKY/WX    TMP DP  RH WIND       PRES   REMARKS
CEDAR RAPIDS   SUNNY     34  11  38 NW14      30.17S WCI  25
CHARLES CITY * SUNNY     28  10  47 NW8       30.17S WCI  20
CLINTON *      CLOUDY    34  18  51 NW9G17    30.19S WCI  26
DECORAH *      PTSUNNY   30  14  51 VRB3G15   30.14S
DUBUQUE        CLOUDY    32  18  56 W13       30.14S WCI  22
MONTICELLO *   MOSUNNY   34  14  44 W12       30.16F WCI  25
OELWEIN *      SUNNY    N/A N/A N/A NW10      30.16F
WATERLOO       SUNNY     32  13  45 NW8       30.17F WCI  25
$$

IAZ064-065-067-068-078-151800-
   EAST CENTRAL IOWA

CITY           SKY/WX    TMP DP  RH WIND       PRES   REMARKS
DAVENPORT      MOSUNNY   35  18  49 NW16G22   30.18S WCI  25
IOWA CITY      SUNNY     35  10  35 W15       30.20F WCI  25
MT. PLEASANT * MOSUNNY   37  19  48 W13G18    30.20F WCI  29
MUSCATINE *    SUNNY     37  14  38 NW10G21   30.20F WCI  30
QUAD CITIES    MOSUNNY   36  13  38 W15G21    30.18S WCI  27
$$

IAZ062-063-075>077-085>089-095>099-151800-
   SOUTHEAST IOWA

CITY           SKY/WX    TMP DP  RH WIND       PRES   REMARKS
BURLINGTON     MOSUNNY   37  19  48 NW8G21    30.19F WCI  31
FAIRFIELD *    MOSUNNY   36  18  48 NW16      30.20S WCI  26
FORT MADISON * PTSUNNY   37  23  56 W10G17    30.21S WCI  30
KEOKUK *       PTSUNNY   41  18  38 NW14G21   30.20S
OSKALOOSA *    PTSUNNY   36  23  60 NW13G20   30.21S WCI  27
CENTERVILLE *  SUNNY     39  19  45 NW6G18    30.21F WCI  35
OTTUMWA        PTSUNNY   38  21  50 W14G23    30.20S WCI  30
WASHINGTON *   SUNNY     36  16  44 W16G24    30.20F WCI  26
$$

ABBREVIATIONS USED IN REMARKS
   TC - TEMPERATURES IN CELSIUS
  WCI - WIND CHILL INDEX
   HX - HEAT INDEX
  VSB - VISIBILITY
$$




USA.gov is the U.S. government's official web portal to all federal, state and local government web resources and services.